sat.trackr.live / text

‹ back to catalog

STARLINK-31339

NORAD 58981 · 2024-031S

PAYLOAD ACTIVE UNKNOWN

§ Identity

Operator
Country
US
Launch date
2024-02-15
Launch site
AFWTR
Launch vehicle
Mass (kg)
RCS (m²)

Purposes: comms

External: N2YO · Heavens-Above · Gunter

§ Orbital elements

Epoch: 2026-09-20T02:29:06.759744Z

Period
93.85 min
Inclination
53.1583°
Eccentricity
0.0001191
Mean motion
15.34383420 rev/d
Perigee alt
461.9 km
Apogee alt
463.6 km
Semi-major
6,840.9 km
B*
9.0837e-5
RAAN
109.7754°
Arg perigee
64.1393°
Mean anomaly
295.9732°
Rev number
14,633

§ Raw data

STARLINK-313391 58981U 24031S   26263.10355046  .00002692  00000+0  90837-4 0  99932 58981  53.1583 109.7754 0001191  64.1393 295.9732 15.34383420146336

JSON: /api/v1/satellites/58981 · /tle

For live sub-satellite position, see the globe view (requires WebGL).

§ Visibility from observer

Set your observer location to see the next 7 days of passes ≥ 10°. The values pass through the URL so the page stays shareable.

No JS? Fill the form by hand. The geolocation button needs JavaScript.